Temp
-8 -8 -8 -7 -7 -7 -7 -6 -6 -6 -7 -7 -6 -6 -5 -6 -6 -5 -5 -5 -5 -5 -6 -5 -6 -5 -5 -6 -6 -7 -7 -7 -7 -7 -7 -7 -7 -8 -8 -8 -8 -8 -8 -8
-7 -8 -8 -8 -8 -7 -7 -7 -6 -7 -7 -7 -7 -7 -6 -6 -6 -5 -5 -6 -5 -5 -6 -5 -5 -5 -5 -5 -6 -7 -7 -7 -7 -8 -7 -7 -7 -8 -8 -8 -8 -8 -7 -7
-8 -8 -8 -8 -8 -8 -7 -8 -7 -7 -7 -7 -7 -6 -6 -7 -7 -5 -5 -5 -6 -6 -6 -6 -5 -5 -5 -5 -6 -6 -7 -7 -7 -7 -8 -7 -7 -7 -8 -8 -8 -8 -8 -8
-9 -8 -8 -8 -8 -8 -8 -8 -8 -8 -7 -7 -6 -6 -6 -7 -7 -6 -6 -6 -6 -6 -5 -5 -5 -5 -5 -5 -6 -6 -6 -7 -7 -7 -7 -7 -7 -7 -7 -7 -8 -7 -7 -7
-9 -9 -9 -8 -8 -9 -9 -9 -8 -7 -7 -6 -6 -6 -7 -7 -7 -6 -6 -6 -6 -6 -5 -5 -5 -5 -6 -5 -5 -6 -6 -7 -7 -7 -7 -7 -7 -7 -7 -7 -7 -7 -7 -7
-10 -10 -9 -9 -9 -9 -9 -9 -9 -8 -7 -7 -7 -7 -8 -7 -6 -6 -6 -7 -6 -6 -6 -5 -5 -5 -6 -5 -5 -6 -6 -7 -7 -7 -7 -7 -7 -7 -7 -7 -7 -7 -7 -7
-10 -10 -10 -10 -9 -8 -9 -9 -9 -8 -8 -7 -8 -7 -7 -6 -7 -7 -6 -6 -7 -6 -6 -5 -5 -5 -6 -6 -5 -6 -6 -6 -6 -7 -7 -7 -7 -6 -7 -7 -7 -7 -7 -7
-11 -10 -10 -10 -9 -9 -8 -9 -8 -8 -8 -7 -8 -7 -7 -6 -6 -5 -6 -6 -7 -6 -6 -6 -6 -6 -6 -6 -6 -5 -6 -6 -6 -6 -7 -6 -7 -7 -6 -7 -6 -7 -7 -7
-11 -11 -11 -11 -11 -10 -9 -9 -9 -9 -8 -8 -8 -8 -8 -7 -7 -6 -6 -7 -7 -7 -7 -7 -6 -6 -6 -5 -5 -6 -6 -6 -6 -6 -7 -7 -7 -7 -7 -6 -6 -6 -7 -7
-12 -11 -11 -11 -11 -11 -10 -10 -10 -9 -8 -8 -8 -8 -8 -8 -7 -7 -7 -8 -7 -7 -6 -6 -7 -7 -7 -6 -6 -6 -6 -6 -6 -6 -6 -6 -7 -7 -7 -7 -6 -6 -6 -6
-12 -12 -11 -12 -11 -11 -10 -10 -10 -10 -9 -9 -8 -7 -8 -8 -7 -7 -8 -8 -7 -6 -7 -7 -7 -7 -6 -7 -7 -6 -6 -6 -6 -6 -6 -6 -6 -7 -7 -7 -7 -6 -6 -6
-13 -12 -12 -12 -12 -11 -11 -11 -10 -11 -10 -10 -9 -8 -8 -8 -7 -7 -8 -8 -7 -7 -7 -7 -6 -6 -7 -6 -6 -6 -7 -6 -6 -7 -6 -6 -6 -7 -7 -7 -7 -7 -7 -7
-14 -13 -13 -12 -12 -12 -12 -11 -11 -11 -11 -10 -9 -8 -9 -9 -8 -7 -7 -7 -8 -8 -7 -7 -6 -7 -6 -6 -6 -6 -6 -6 -6 -6 -6 -6 -6 -7 -7 -7 -7 -7 -7 -7
-14 -14 -14 -14 -13 -12 -12 -12 -12 -12 -11 -11 -10 -9 -9 -9 -9 -8 -8 -7 -8 -8 -8 -8 -7 -7 -8 -7 -7 -6 -6 -6 -6 -6 -7 -6 -6 -6 -7 -7 -7 -7 -7 -7
-15 -14 -14 -14 -13 -13 -13 -12 -12 -12 -12 -12 -11 -10 -9 -10 -10 -9 -9 -8 -8 -8 -8 -8 -9 -8 -8 -7 -7 -6 -7 -7 -6 -6 -7 -6 -7 -7 -7 -7 -7 -7 -7 -7
-15 -14 -14 -14 -14 -14 -13 -13 -13 -12 -12 -12 -12 -11 -10 -10 -10 -10 -9 -9 -8 -8 -8 -8 -9 -8 -8 -7 -7 -7 -7 -7 -7 -7 -6 -6 -6 -7 -7 -7 -7 -7 -7 -7
-15 -15 -14 -14 -14 -14 -14 -13 -13 -13 -12 -12 -12 -12 -11 -11 -10 -10 -10 -10 -9 -9 -9 -9 -8 -9 -9 -8 -8 -7 -7 -8 -7 -7 -7 -7 -7 -7 -7 -7 -7 -7 -7 -7
-15 -15 -15 -14 -14 -14 -13 -13 -13 -13 -13 -12 -12 -12 -12 -11 -11 -11 -11 -11 -10 -10 -10 -9 -9 -9 -8 -8 -8 -8 -8 -9 -8 -7 -7 -7 -7 -7 -7 -7 -8 -7 -8 -7
-16 -15 -15 -15 -14 -14 -13 -13 -13 -13 -13 -13 -12 -12 -12 -12 -11 -11 -11 -11 -11 -11 -11 -10 -10 -10 -9 -9 -9 -9 -8 -9 -8 -8 -8 -8 -8 -7 -7 -7 -7 -9 -9 -9
-16 -16 -15 -15 -14 -14 -14 -13 -13 -13 -13 -13 -13 -13 -12 -12 -11 -12 -12 -11 -11 -11 -11 -11 -11 -10 -10 -10 -9 -9 -9 -9 -9 -9 -9 -9 -9 -9 -9 -9 -9 -9 -10 -10
-16 -16 -16 -16 -15 -14 -14 -14 -14 -13 -14 -13 -13 -13 -13 -13 -12 -12 -12 -11 -11 -11 -11 -11 -11 -11 -10 -10 -10 -10 -10 -9 -9 -9 -9 -9 -9 -9 -9 -10 -9 -9 -9 -9
-16 -16 -16 -16 -15 -15 -14 -14 -14 -14 -14 -14 -14 -13 -13 -13 -13 -12 -12 -12 -11 -11 -12 -12 -12 -11 -11 -10 -10 -10 -10 -10 -10 -9 -9 -9 -9 -9 -9 -9 -9 -9 -9 -9
-16 -16 -16 -16 -16 -15 -15 -15 -14 -14 -14 -14 -14 -14 -13 -13 -13 -13 -13 -12 -12 -12 -13 -12 -12 -12 -12 -11 -11 -11 -11 -11 -11 -11 -10 -10 -9 -9 -9 -9 -9 -10 -10 -10
-16 -16 -16 -16 -16 -15 -15 -15 -15 -14 -14 -14 -14 -14 -13 -14 -14 -14 -13 -13 -12 -12 -13 -13 -13 -13 -12 -12 -11 -11 -11 -11 -11 -10 -10 -10 -10 -9 -10 -10 -10 -10 -10 -10
-16 -16 -16 -16 -16 -16 -16 -15 -16 -15 -15 -15 -15 -14 -14 -14 -14 -14 -13 -13 -13 -12 -13 -12 -12 -12 -13 -12 -12 -12 -12 -12 -12 -11 -11 -10 -11 -10 -10 -11 -10 -11 -10 -10
-16 -16 -16 -16 -16 -16 -16 -16 -16 -16 -16 -16 -16 -16 -15 -15 -14 -14 -14 -14 -14 -13 -13 -13 -13 -13 -14 -13 -13 -13 -12 -13 -12 -12 -12 -12 -11 -11 -11 -11 -11 -11 -10 -10
Height
5845 5854 5860 5864 5868 5872 5877 5881 5884 5884 5887 5887 5889 5891 5892 5892 5896 5899 5901 5906 5909 5913 5915 5920 5924 5926 5927 5930 5930 5930 5932 5931 5930 5931 5933 5932 5933 5934 5936 5937 5938 5940 5942 5944
5842 5851 5856 5858 5862 5868 5873 5878 5880 5882 5885 5887 5887 5888 5889 5891 5896 5898 5900 5904 5907 5912 5916 5920 5923 5926 5928 5930 5931 5931 5932 5933 5932 5932 5934 5935 5935 5935 5937 5939 5940 5941 5944 5946
5839 5845 5848 5854 5859 5865 5870 5874 5877 5879 5882 5885 5887 5888 5890 5887 5892 5896 5899 5902 5905 5911 5914 5918 5921 5924 5927 5930 5932 5932 5932 5933 5933 5933 5935 5937 5937 5937 5939 5941 5942 5943 5945 5948
5832 5834 5842 5850 5855 5861 5866 5869 5873 5875 5878 5882 5886 5887 5888 5888 5889 5895 5897 5902 5903 5909 5912 5913 5919 5923 5925 5929 5931 5932 5933 5933 5934 5934 5936 5939 5939 5940 5940 5942 5944 5945 5947 5949
5828 5830 5835 5843 5851 5857 5862 5865 5867 5871 5875 5881 5885 5886 5887 5889 5891 5894 5897 5900 5903 5906 5911 5914 5918 5922 5925 5927 5930 5932 5933 5932 5933 5935 5936 5938 5940 5941 5942 5943 5944 5947 5948 5949
5819 5825 5830 5837 5845 5850 5856 5859 5864 5868 5871 5879 5881 5885 5886 5887 5890 5892 5895 5898 5903 5906 5909 5911 5915 5919 5923 5926 5928 5930 5932 5932 5933 5935 5937 5939 5940 5942 5944 5945 5945 5947 5949 5950
5812 5818 5824 5831 5838 5843 5849 5854 5858 5864 5868 5876 5878 5883 5885 5887 5887 5890 5892 5897 5899 5904 5908 5911 5915 5919 5922 5923 5925 5928 5929 5931 5932 5934 5937 5939 5941 5942 5943 5944 5945 5947 5949 5950
5807 5814 5817 5825 5832 5839 5845 5850 5854 5858 5866 5873 5874 5880 5884 5886 5887 5889 5891 5890 5895 5900 5906 5910 5914 5917 5920 5921 5922 5925 5928 5930 5931 5933 5936 5938 5940 5942 5943 5944 5944 5946 5948 5950
5802 5809 5814 5821 5827 5833 5839 5843 5850 5854 5864 5868 5870 5876 5881 5884 5887 5887 5887 5889 5894 5898 5902 5906 5910 5916 5918 5919 5920 5923 5925 5928 5930 5931 5934 5936 5939 5941 5943 5944 5946 5946 5949 5949
5800 5805 5810 5815 5821 5826 5833 5844 5846 5848 5857 5861 5866 5872 5876 5882 5886 5887 5888 5892 5894 5896 5899 5902 5907 5912 5914 5916 5919 5920 5923 5927 5930 5931 5932 5935 5937 5940 5942 5944 5947 5948 5949 5950
5795 5801 5806 5811 5815 5822 5827 5832 5838 5845 5851 5857 5862 5869 5874 5879 5884 5886 5887 5888 5891 5893 5896 5897 5901 5905 5906 5910 5914 5916 5920 5923 5926 5929 5929 5932 5935 5937 5939 5943 5946 5947 5950 5951
5791 5797 5801 5806 5810 5817 5823 5829 5836 5840 5845 5851 5857 5865 5870 5876 5880 5884 5887 5888 5889 5890 5892 5895 5897 5900 5902 5902 5908 5910 5914 5919 5923 5925 5927 5929 5932 5935 5936 5939 5942 5945 5947 5949
5788 5793 5797 5801 5808 5813 5817 5823 5829 5835 5840 5845 5852 5860 5866 5871 5876 5879 5882 5885 5886 5886 5888 5891 5894 5896 5898 5899 5902 5907 5908 5914 5917 5920 5921 5924 5928 5931 5933 5934 5937 5940 5943 5946
5785 5790 5794 5799 5804 5809 5813 5819 5824 5830 5835 5839 5845 5852 5860 5867 5871 5874 5878 5881 5882 5883 5883 5885 5887 5889 5893 5895 5897 5901 5904 5906 5911 5914 5916 5919 5923 5926 5929 5931 5932 5934 5938 5942
5781 5786 5791 5794 5799 5805 5811 5816 5821 5825 5830 5834 5840 5846 5853 5859 5864 5867 5871 5875 5877 5880 5880 5882 5884 5887 5890 5892 5893 5895 5897 5900 5903 5907 5910 5912 5915 5918 5923 5925 5927 5929 5932 5936
5776 5782 5787 5792 5796 5801 5806 5811 5815 5820 5824 5829 5834 5839 5846 5852 5856 5861 5865 5868 5869 5873 5876 5877 5880 5883 5886 5887 5889 5890 5891 5894 5897 5901 5903 5904 5905 5907 5911 5916 5920 5923 5926 5930
5772 5776 5782 5786 5791 5796 5802 5805 5808 5813 5818 5823 5828 5834 5839 5845 5850 5854 5858 5860 5863 5865 5868 5871 5874 5876 5877 5880 5882 5884 5885 5888 5892 5894 5897 5897 5898 5899 5903 5908 5913 5917 5920 5923
5765 5770 5776 5781 5785 5789 5794 5798 5803 5807 5812 5817 5821 5827 5831 5836 5842 5845 5849 5852 5855 5859 5862 5864 5867 5870 5870 5872 5875 5878 5880 5884 5886 5889 5892 5893 5893 5894 5898 5901 5906 5910 5913 5915
5763 5765 5769 5773 5776 5783 5788 5791 5796 5800 5805 5809 5814 5820 5824 5827 5830 5835 5841 5845 5849 5852 5856 5858 5860 5864 5865 5867 5869 5872 5876 5880 5882 5884 5887 5888 5888 5890 5892 5892 5897 5902 5903 5907
5760 5762 5767 5768 5771 5777 5782 5786 5790 5795 5797 5801 5807 5810 5815 5819 5823 5829 5833 5836 5839 5843 5847 5850 5853 5856 5859 5863 5864 5866 5869 5873 5877 5878 5881 5884 5886 5886 5888 5888 5892 5893 5897 5900
5754 5757 5761 5764 5768 5770 5774 5779 5783 5788 5792 5793 5798 5803 5808 5811 5815 5819 5821 5825 5828 5833 5837 5841 5844 5848 5851 5855 5858 5861 5863 5866 5870 5872 5875 5878 5881 5882 5883 5886 5887 5889 5891 5895
5748 5752 5756 5759 5762 5765 5768 5772 5774 5779 5782 5785 5789 5794 5799 5803 5806 5809 5811 5815 5819 5824 5827 5830 5835 5838 5842 5845 5849 5853 5856 5859 5861 5864 5868 5870 5873 5875 5878 5880 5881 5884 5884 5886
5746 5748 5750 5753 5755 5756 5759 5764 5767 5769 5773 5777 5781 5786 5790 5794 5797 5799 5801 5804 5808 5813 5817 5822 5825 5830 5834 5837 5841 5845 5849 5852 5855 5857 5860 5863 5866 5869 5871 5872 5873 5875 5878 5880
5743 5744 5746 5748 5749 5750 5752 5754 5757 5761 5764 5768 5772 5777 5781 5784 5788 5789 5791 5795 5798 5802 5806 5811 5815 5819 5823 5827 5831 5835 5839 5843 5846 5848 5851 5853 5856 5859 5862 5864 5866 5868 5869 5871
5739 5740 5741 5742 5743 5744 5745 5747 5748 5752 5756 5757 5761 5766 5770 5773 5777 5780 5782 5784 5789 5790 5795 5800 5804 5807 5811 5815 5819 5822 5826 5830 5834 5836 5840 5842 5846 5847 5850 5853 5856 5857 5858 5860
5734 5734 5734 5734 5734 5735 5737 5738 5740 5742 5745 5749 5751 5754 5759 5762 5765 5769 5771 5775 5779 5782 5784 5789 5793 5797 5800 5803 5807 5810 5813 5817 5821 5824 5827 5830 5834 5836 5837 5839 5841 5843 5844 5845
Wind_Speed
35 34 25 24 24 23 22 20 16 15 11 14 10 7 15 28 27 24 23 21 21 20 21 19 17 15 13 12 12 13 13 15 15 13 13 14 17 17 16 15 15 15 15 14
36 33 29 30 28 25 24 23 22 18 14 13 16 17 15 23 29 26 25 24 22 19 21 20 18 17 15 14 14 13 13 14 15 14 12 14 15 16 16 15 15 15 14 13
34 35 38 33 31 27 25 23 21 19 17 13 9 10 10 37 35 27 26 26 25 22 22 21 20 18 17 15 15 14 14 13 12 12 12 10 14 14 15 15 15 14 14 13
36 40 40 37 33 30 26 25 23 22 21 15 13 18 17 30 36 31 28 27 26 26 26 25 21 21 19 16 15 16 14 14 13 12 12 11 11 12 13 15 15 14 14 14
39 41 42 41 37 33 30 27 28 28 24 20 15 21 24 28 31 29 29 28 26 28 26 22 22 21 21 20 16 16 16 15 15 12 11 12 10 11 12 14 15 14 13 14
39 40 42 41 40 39 35 34 31 30 30 24 21 16 15 11 25 29 31 28 26 24 26 26 25 24 24 22 21 19 17 17 16 15 13 11 12 11 10 13 14 13 12 14
39 42 42 41 43 43 41 39 36 34 31 24 22 15 14 17 13 6 18 32 29 28 27 24 21 24 25 24 23 22 20 19 18 16 16 15 14 15 14 12 13 12 12 12
39 41 43 42 42 43 42 41 41 38 30 24 24 19 15 16 11 10 8 32 33 29 25 23 23 25 26 26 24 23 22 20 20 18 17 16 15 16 15 14 14 14 13 12
38 38 39 39 39 41 42 44 41 39 31 28 28 21 17 11 9 7 5 14 26 22 24 26 24 25 26 25 24 23 23 23 22 21 20 18 16 16 15 14 13 13 12 13
36 37 37 35 39 40 40 37 42 42 37 35 32 26 23 17 13 13 11 14 19 21 23 25 26 28 25 27 24 25 24 24 24 21 21 21 19 16 16 15 13 13 13 12
36 38 37 35 38 39 41 42 44 42 38 35 33 29 20 15 17 20 22 18 21 21 21 25 31 33 26 31 29 23 26 25 27 25 23 22 22 20 18 16 15 14 14 13
36 36 35 37 36 37 38 38 40 43 42 39 33 29 24 19 18 25 22 23 18 19 17 23 22 25 18 29 28 34 31 29 27 28 27 25 24 24 23 21 20 18 16 15
31 33 33 36 37 36 38 38 38 42 43 39 34 32 26 21 21 19 20 23 23 24 28 29 29 22 13 14 30 31 25 28 28 27 28 29 28 28 28 26 24 23 22 19
29 31 34 32 37 37 39 38 37 38 41 40 38 33 31 27 25 25 22 25 27 27 25 25 24 19 18 16 22 34 27 29 30 30 29 29 31 31 32 31 29 28 27 26
30 31 33 35 35 36 34 36 37 38 39 38 36 35 30 31 29 30 27 30 31 24 26 24 17 20 22 20 21 27 32 31 32 33 24 24 29 27 34 36 34 32 31 30
34 31 32 36 35 36 36 35 36 37 39 39 37 35 33 30 32 31 29 32 28 25 25 25 24 23 24 23 20 29 25 25 22 21 26 26 29 37 39 40 39 36 33 33
33 35 30 32 38 38 37 39 37 36 37 37 39 38 35 32 33 31 32 33 29 27 27 25 26 23 31 32 34 28 25 20 20 20 22 22 26 26 38 39 41 40 38 36
19 29 34 31 38 39 38 38 41 37 35 37 34 34 38 37 35 39 39 38 37 34 33 30 30 29 27 24 26 32 23 18 20 22 19 18 16 20 29 32 39 39 40 41
13 15 33 41 33 37 38 45 43 36 38 38 34 31 32 37 43 41 39 40 37 35 32 31 31 23 21 22 27 22 16 19 22 25 19 16 13 20 28 14 34 46 52 46
19 14 16 24 25 28 34 35 37 36 40 40 38 34 31 33 35 32 33 36 36 38 36 38 35 31 27 20 25 27 25 24 26 28 23 21 17 15 14 16 11 19 7 10
21 22 20 20 17 18 26 39 39 36 35 35 37 37 30 31 32 31 35 36 38 36 36 35 36 33 32 32 29 31 30 27 26 27 26 25 21 16 14 15 14 14 13 17
18 25 25 26 25 25 22 23 35 36 34 32 33 37 34 30 31 34 37 38 39 36 32 32 30 28 31 32 34 36 34 31 30 27 25 19 19 16 18 18 18 18 16 18
15 18 22 25 28 27 28 32 30 31 32 33 34 37 33 35 34 35 35 39 42 41 34 34 34 33 34 38 39 36 35 32 29 26 29 30 28 27 28 24 21 21 22 21
10 13 16 19 22 25 26 28 33 37 36 35 35 35 40 37 36 39 41 40 40 38 37 39 39 42 43 43 44 43 36 38 39 37 38 38 38 34 36 34 32 30 26 27
11 13 16 19 22 25 26 27 26 30 33 34 39 39 39 43 41 44 38 40 35 35 38 40 44 42 40 38 39 41 35 37 40 39 40 41 41 40 42 42 43 39 35 34
8 12 17 23 26 26 26 28 30 29 30 31 34 37 43 43 44 48 49 45 44 44 42 41 40 41 42 41 40 41 43 41 42 44 44 46 47 47 48 53 51 53 48 43
Wind_Direction
216 212 205 209 217 211 203 207 201 215 214 234 229 212 227 183 189 188 180 178 180 183 171 172 167 168 159 162 150 139 131 127 122 123 126 114 121 126 123 118 118 121 132 142
214 210 208 208 213 214 207 205 210 217 214 239 278 280 208 200 188 186 180 178 182 181 178 171 171 169 166 163 155 146 141 130 128 126 122 121 119 123 130 131 126 124 128 135
209 209 211 210 212 213 212 209 211 212 222 230 235 261 232 184 179 184 181 182 176 177 180 175 173 175 171 173 160 153 149 147 138 130 123 122 118 123 134 142 140 140 135 135
203 209 208 211 213 214 214 214 214 216 221 228 238 229 230 185 181 183 185 186 180 178 182 179 173 179 178 177 168 166 162 154 149 143 140 133 131 129 138 148 151 155 151 146
209 208 207 206 209 213 216 215 214 219 222 223 226 206 178 200 186 195 195 189 186 183 183 180 180 181 185 183 176 173 175 166 160 157 150 142 149 144 143 149 156 161 166 159
210 211 212 204 206 211 215 219 220 222 226 220 227 242 261 283 214 202 198 198 191 196 189 185 183 187 189 188 184 183 180 178 173 167 172 171 162 161 162 155 152 161 169 173
208 210 214 209 205 210 214 218 221 223 224 225 231 226 239 250 266 303 227 202 194 199 203 195 189 189 193 193 188 192 187 189 185 185 183 185 186 180 175 173 157 157 170 179
206 209 213 211 209 211 214 220 227 226 223 225 235 231 244 250 262 263 285 208 198 199 201 202 197 196 196 199 199 196 198 198 193 192 196 193 192 194 183 186 173 170 172 179
204 207 213 212 211 211 211 219 227 229 225 226 231 231 228 227 236 240 288 187 194 197 206 206 209 202 207 204 205 209 206 206 203 196 202 207 200 199 197 199 198 187 188 186
207 203 210 212 212 210 214 217 223 229 228 226 230 231 230 232 233 209 172 187 195 201 203 207 210 216 213 211 215 212 214 217 216 205 206 209 212 209 210 213 216 215 204 202
206 206 207 211 213 213 211 212 217 226 231 229 232 230 230 222 208 202 193 201 218 208 201 209 210 219 243 216 225 224 213 219 222 219 211 211 216 214 218 219 226 228 225 221
206 206 205 209 212 212 212 216 219 224 228 229 230 230 227 225 220 215 212 215 221 210 198 200 208 216 243 232 246 217 214 215 219 221 219 220 219 220 219 219 228 234 232 234
205 204 202 209 210 209 212 212 218 222 226 231 230 224 220 221 215 219 222 223 225 224 224 217 210 211 226 232 224 218 213 218 218 222 224 224 225 223 223 222 225 229 232 231
208 206 204 207 213 213 213 215 216 220 227 231 231 225 218 218 224 233 238 231 231 232 241 251 235 240 219 216 219 207 210 223 229 231 223 233 234 230 229 227 225 227 230 233
207 209 209 210 212 215 220 221 222 221 226 230 234 233 221 214 218 225 232 234 234 236 244 247 259 248 234 211 212 209 212 230 235 235 241 238 238 241 235 231 231 229 229 233
208 208 211 216 214 218 219 225 228 230 230 232 235 235 232 222 222 224 231 234 235 234 232 236 243 242 249 235 240 235 232 227 222 233 246 251 256 249 234 231 233 234 235 235
214 212 213 212 217 219 223 226 228 233 237 234 235 236 236 232 227 227 231 234 236 242 249 253 252 260 260 257 247 238 227 226 236 238 247 245 236 244 227 230 233 234 238 240
248 211 212 218 216 218 220 226 231 234 239 240 236 236 238 238 235 231 232 235 239 247 251 256 258 257 266 264 249 244 254 228 240 243 240 237 236 234 233 242 235 236 238 240
254 243 222 227 217 217 218 223 227 224 235 240 239 236 239 236 236 238 238 241 242 243 246 248 250 249 263 269 256 266 258 235 235 237 241 240 240 215 217 229 233 233 235 236
221 219 229 228 228 227 227 231 233 235 241 240 235 231 233 239 241 245 243 243 241 242 245 249 253 255 248 257 245 227 228 227 226 237 236 242 253 240 235 253 278 263 302 228
222 225 226 221 228 231 230 231 234 234 235 237 233 235 231 237 237 235 231 231 235 236 239 241 246 250 252 251 252 226 223 222 232 232 239 243 244 245 243 237 234 230 237 247
226 224 222 221 226 237 242 232 233 235 230 232 231 231 233 242 242 235 233 234 234 232 231 237 242 246 245 241 236 228 226 226 221 225 231 232 237 235 225 223 219 225 229 230
225 229 232 235 240 248 245 240 237 236 236 233 232 231 232 240 240 241 230 233 235 231 237 226 232 235 229 232 231 243 239 224 229 247 254 241 248 250 244 230 233 235 242 245
246 243 241 240 240 243 247 246 236 234 240 237 232 235 233 236 234 235 237 238 238 233 225 231 231 235 244 244 245 251 249 251 254 253 254 253 252 254 249 237 234 233 241 247
257 253 252 249 246 243 242 242 241 237 237 241 239 234 234 237 238 230 222 230 228 229 232 237 241 242 238 239 243 245 236 244 246 247 244 243 246 250 254 249 242 243 246 249
281 277 263 252 248 247 247 245 244 242 238 235 239 237 233 232 232 231 236 234 235 234 232 233 242 239 237 243 245 247 242 244 243 242 247 240 241 252 245 249 249 250 251 249